EZY61WA EGPH-EGSS

Flight info

Callsign EZY61WA
Flight time 1h 2m
Altitude 33000
Route GOSAM P600 FENIK L612 ELBUS UL612 LISTO
Aircraft A319/M-SDE3FGHIRWY/LB1

Departure

Time 2026-04-23 09:23
Airport Edinburgh Airport (EGPH)

Arrival

Time 2026-04-23 10:26
Airport London Stansted Airport (EGSS)
Time Latitude Longitude Altitude Speed Heading
2026-04-23 09:09 55.94952 -3.36033 117 ft 0 kts 255°
2026-04-23 09:14 55.94955 -3.36016 113 ft 2 kts 254°
2026-04-23 09:14 55.94959 -3.35988 113 ft 2 kts 254°
2026-04-23 09:15 55.94963 -3.35959 113 ft 2 kts 254°
2026-04-23 09:15 55.94967 -3.35931 114 ft 2 kts 297°
2026-04-23 09:15 55.94959 -3.35905 112 ft 2 kts 304°
2026-04-23 09:15 55.94950 -3.35881 113 ft 2 kts 307°
2026-04-23 09:16 55.94940 -3.35858 112 ft 2 kts 308°
2026-04-23 09:16 55.94929 -3.35835 112 ft 2 kts 308°
2026-04-23 09:16 55.94921 -3.35815 112 ft 1 kts 305°
2026-04-23 09:16 55.94918 -3.35809 112 ft 0 kts 303°
2026-04-23 09:17 55.94919 -3.35810 112 ft 1 kts 303°
2026-04-23 09:17 55.94919 -3.35811 112 ft 0 kts 303°
2026-04-23 09:18 55.94920 -3.35813 112 ft 1 kts 303°
2026-04-23 09:18 55.94927 -3.35827 112 ft 3 kts 312°
2026-04-23 09:19 55.94965 -3.35860 113 ft 10 kts 347°
2026-04-23 09:19 55.95049 -3.35854 116 ft 16 kts 320°
2026-04-23 09:19 55.95105 -3.36064 115 ft 22 kts 287°
2026-04-23 09:19 55.95117 -3.36328 115 ft 22 kts 244°
2026-04-23 09:20 55.95037 -3.36568 114 ft 23 kts 239°
2026-04-23 09:20 55.94953 -3.36817 114 ft 24 kts 238°
2026-04-23 09:20 55.94865 -3.37075 114 ft 25 kts 240°
2026-04-23 09:20 55.94775 -3.37342 116 ft 25 kts 239°
2026-04-23 09:21 55.94682 -3.37615 114 ft 26 kts 239°
2026-04-23 09:21 55.94586 -3.37895 116 ft 27 kts 239°
2026-04-23 09:21 55.94489 -3.38185 116 ft 28 kts 239°
2026-04-23 09:21 55.94389 -3.38482 115 ft 28 kts 239°
2026-04-23 09:22 55.94291 -3.38769 114 ft 12 kts 239°
2026-04-23 09:22 55.94309 -3.38888 114 ft 12 kts 322°
2026-04-23 09:22 55.94387 -3.38972 113 ft 16 kts 338°
2026-04-23 09:22 55.94511 -3.38680 113 ft 65 kts 59°
2026-04-23 09:23 55.94876 -3.37624 113 ft 133 kts 59°
2026-04-23 09:23 55.95404 -3.36029 531 ft 151 kts 59°
2026-04-23 09:23 55.95952 -3.34395 1270 ft 155 kts 59°
2026-04-23 09:23 55.96738 -3.32994 1858 ft 169 kts 40°
2026-04-23 09:24 55.97702 -3.31595 2325 ft 189 kts 44°
2026-04-23 09:24 55.98758 -3.29927 2624 ft 219 kts 45°
2026-04-23 09:24 56.00042 -3.28226 3058 ft 248 kts 26°
2026-04-23 09:24 56.01805 -3.27747 3695 ft 267 kts 351°
2026-04-23 09:25 56.03495 -3.29184 4577 ft 276 kts 317°
2026-04-23 09:25 56.04494 -3.32075 5505 ft 278 kts 284°
2026-04-23 09:25 56.04503 -3.35474 6343 ft 274 kts 251°
2026-04-23 09:25 56.03751 -3.38564 7444 ft 269 kts 241°
2026-04-23 09:26 56.02894 -3.41576 8362 ft 274 kts 241°
2026-04-23 09:26 56.02027 -3.44628 9378 ft 277 kts 241°
2026-04-23 09:26 56.01167 -3.47733 10337 ft 280 kts 244°
2026-04-23 09:26 56.00524 -3.51078 11069 ft 292 kts 253°
2026-04-23 09:27 56.00022 -3.54749 11394 ft 316 kts 255°
2026-04-23 09:27 55.99515 -3.58722 11683 ft 339 kts 255°
2026-04-23 09:27 55.98979 -3.62909 12261 ft 350 kts 255°
2026-04-23 09:27 55.98416 -3.67164 13010 ft 355 kts 254°
2026-04-23 09:28 55.97822 -3.71468 13765 ft 359 kts 255°
2026-04-23 09:28 55.97204 -3.75809 14480 ft 363 kts 254°
2026-04-23 09:28 55.96568 -3.80201 15138 ft 367 kts 253°
2026-04-23 09:28 55.95922 -3.84622 15833 ft 370 kts 254°
2026-04-23 09:29 55.95267 -3.89072 16547 ft 372 kts 254°
2026-04-23 09:29 55.94610 -3.93548 17236 ft 375 kts 255°
2026-04-23 09:29 55.93862 -3.98026 17876 ft 379 kts 247°
2026-04-23 09:29 55.92519 -4.02057 18574 ft 381 kts 231°
2026-04-23 09:30 55.90561 -4.05267 19207 ft 385 kts 217°
2026-04-23 09:30 55.89117 -4.07119 19594 ft 387 kts 216°
2026-04-23 09:30 55.86919 -4.09908 20178 ft 390 kts 216°
2026-04-23 09:30 55.84698 -4.12708 20795 ft 392 kts 216°
2026-04-23 09:31 55.82467 -4.15512 21370 ft 394 kts 216°
2026-04-23 09:31 55.80215 -4.18349 21903 ft 398 kts 216°
2026-04-23 09:31 55.77947 -4.21191 22460 ft 400 kts 214°
2026-04-23 09:31 55.75451 -4.23410 22990 ft 404 kts 200°
2026-04-23 09:32 55.72696 -4.24527 23477 ft 409 kts 187°
2026-04-23 09:32 55.69844 -4.24596 23984 ft 413 kts 176°
2026-04-23 09:32 55.67011 -4.23691 24472 ft 415 kts 166°
2026-04-23 09:32 55.64285 -4.21957 24890 ft 419 kts 157°
2026-04-23 09:33 55.61686 -4.19548 25281 ft 423 kts 152°
2026-04-23 09:33 55.59100 -4.17023 25647 ft 426 kts 153°
2026-04-23 09:33 55.56495 -4.14472 26059 ft 429 kts 153°
2026-04-23 09:33 55.53882 -4.11917 26467 ft 431 kts 153°
2026-04-23 09:34 55.51250 -4.09346 26852 ft 434 kts 152°
2026-04-23 09:34 55.48602 -4.06763 27214 ft 437 kts 152°
2026-04-23 09:34 55.45935 -4.04169 27603 ft 439 kts 153°
2026-04-23 09:34 55.43248 -4.01562 27935 ft 443 kts 152°
2026-04-23 09:35 55.40541 -3.98939 28268 ft 446 kts 152°
2026-04-23 09:35 55.37810 -3.96301 28623 ft 449 kts 153°
2026-04-23 09:35 55.35067 -3.93661 28958 ft 451 kts 153°
2026-04-23 09:35 55.32304 -3.91001 29293 ft 454 kts 152°
2026-04-23 09:36 55.29530 -3.88329 29621 ft 456 kts 152°
2026-04-23 09:36 55.26737 -3.85642 29943 ft 459 kts 152°
2026-04-23 09:36 55.23928 -3.82943 30209 ft 462 kts 152°
2026-04-23 09:36 55.21099 -3.80231 30490 ft 465 kts 152°
2026-04-23 09:37 55.18290 -3.77548 30820 ft 466 kts 152°
2026-04-23 09:37 55.15444 -3.74827 31181 ft 466 kts 152°
2026-04-23 09:37 55.12604 -3.72113 31611 ft 464 kts 152°
2026-04-23 09:37 55.09775 -3.69419 32012 ft 463 kts 152°
2026-04-23 09:38 55.06940 -3.66733 32373 ft 464 kts 152°
2026-04-23 09:38 55.04109 -3.64056 32756 ft 463 kts 152°
2026-04-23 09:38 55.01285 -3.61386 33222 ft 461 kts 152°
2026-04-23 09:38 54.98467 -3.58718 33479 ft 460 kts 152°
2026-04-23 09:39 54.95663 -3.56066 33527 ft 458 kts 152°
2026-04-23 09:39 54.90035 -3.50764 33522 ft 462 kts 152°
2026-04-23 09:40 54.84380 -3.45450 33523 ft 461 kts 152°
2026-04-23 09:40 54.78728 -3.40159 33518 ft 463 kts 152°
2026-04-23 09:41 54.73050 -3.34878 33522 ft 463 kts 152°
2026-04-23 09:41 54.67259 -3.30019 33524 ft 462 kts 156°
2026-04-23 09:42 54.61373 -3.25757 33529 ft 461 kts 158°
2026-04-23 09:42 54.55456 -3.21542 33524 ft 460 kts 157°
2026-04-23 09:43 54.49568 -3.17198 33514 ft 460 kts 156°
2026-04-23 09:43 54.43697 -3.12791 33506 ft 460 kts 156°
2026-04-23 09:44 54.37823 -3.08408 33504 ft 460 kts 156°
2026-04-23 09:44 54.31943 -3.04054 33499 ft 460 kts 156°
2026-04-23 09:45 54.26063 -2.99719 33501 ft 460 kts 156°
2026-04-23 09:45 54.20180 -2.95403 33508 ft 460 kts 156°
2026-04-23 09:46 54.14290 -2.91095 33502 ft 461 kts 156°
2026-04-23 09:46 54.08389 -2.86800 33501 ft 461 kts 156°
2026-04-23 09:47 54.02482 -2.82513 33492 ft 462 kts 156°
2026-04-23 09:47 53.96573 -2.78221 33496 ft 462 kts 156°
2026-04-23 09:48 53.90661 -2.73927 33491 ft 463 kts 156°
2026-04-23 09:48 53.84728 -2.69647 33498 ft 463 kts 157°
2026-04-23 09:49 53.78790 -2.65400 33495 ft 464 kts 157°
2026-04-23 09:49 53.72850 -2.61140 33502 ft 464 kts 156°
2026-04-23 09:50 53.66944 -2.56912 33490 ft 465 kts 156°
2026-04-23 09:50 53.60972 -2.52650 33490 ft 466 kts 156°
2026-04-23 09:51 53.54991 -2.48410 33500 ft 467 kts 156°
2026-04-23 09:51 53.48987 -2.44191 33498 ft 468 kts 156°
2026-04-23 09:52 53.42989 -2.39953 33491 ft 468 kts 156°
2026-04-23 09:52 53.36984 -2.35707 33493 ft 468 kts 156°
2026-04-23 09:53 53.30975 -2.31487 33503 ft 468 kts 156°
2026-04-23 09:53 53.24993 -2.27319 33502 ft 469 kts 156°
2026-04-23 09:54 53.18963 -2.23148 33501 ft 469 kts 156°
2026-04-23 09:54 53.13122 -2.18362 33500 ft 468 kts 145°
2026-04-23 09:55 53.07884 -2.11949 33497 ft 468 kts 142°
2026-04-23 09:55 53.02618 -2.05589 33502 ft 468 kts 143°
2026-04-23 09:56 52.97341 -1.99248 33519 ft 468 kts 142°
2026-04-23 09:56 52.92067 -1.92879 33497 ft 470 kts 142°
2026-04-23 09:57 52.86780 -1.86498 33502 ft 471 kts 142°
2026-04-23 09:57 52.81482 -1.80131 33507 ft 471 kts 142°
2026-04-23 09:58 52.76168 -1.73763 33305 ft 472 kts 142°
2026-04-23 09:58 52.73393 -1.70849 33037 ft 475 kts 150°
2026-04-23 09:58 52.70462 -1.68313 32563 ft 476 kts 151°
2026-04-23 09:58 52.67505 -1.65773 31340 ft 484 kts 151°
2026-04-23 09:59 52.64498 -1.63196 30092 ft 490 kts 151°
2026-04-23 09:59 52.61457 -1.60587 28799 ft 494 kts 151°
2026-04-23 09:59 52.58408 -1.57975 27581 ft 494 kts 151°
2026-04-23 09:59 52.55432 -1.55432 26921 ft 479 kts 151°
2026-04-23 10:00 52.52512 -1.52944 26148 ft 467 kts 151°
2026-04-23 10:00 52.49661 -1.50516 25515 ft 457 kts 151°
2026-04-23 10:00 52.46866 -1.48142 24794 ft 448 kts 151°
2026-04-23 10:00 52.44127 -1.45816 24070 ft 440 kts 151°
2026-04-23 10:01 52.41437 -1.43531 23313 ft 431 kts 151°
2026-04-23 10:01 52.38808 -1.41300 22692 ft 421 kts 151°
2026-04-23 10:01 52.36231 -1.39119 22065 ft 413 kts 151°
2026-04-23 10:01 52.33704 -1.36984 21471 ft 406 kts 150°
2026-04-23 10:02 52.31213 -1.34878 20903 ft 400 kts 150°
2026-04-23 10:02 52.28753 -1.32777 20351 ft 399 kts 150°
2026-04-23 10:02 52.26277 -1.30527 19975 ft 412 kts 149°
2026-04-23 10:02 52.23799 -1.28178 19558 ft 412 kts 147°
2026-04-23 10:03 52.21342 -1.25805 19142 ft 408 kts 148°
2026-04-23 10:03 52.18912 -1.23454 18716 ft 404 kts 148°
2026-04-23 10:03 52.16497 -1.21145 18279 ft 401 kts 148°
2026-04-23 10:03 52.14092 -1.18867 17874 ft 398 kts 149°
2026-04-23 10:04 52.11700 -1.16620 17469 ft 396 kts 149°
2026-04-23 10:04 52.09321 -1.14395 17059 ft 393 kts 149°
2026-04-23 10:04 52.06962 -1.12191 16656 ft 390 kts 149°
2026-04-23 10:04 52.04651 -1.09920 16251 ft 386 kts 143°
2026-04-23 10:05 52.02664 -1.07036 15840 ft 382 kts 130°
2026-04-23 10:05 52.01156 -1.03601 15463 ft 377 kts 118°
2026-04-23 10:05 52.00158 -0.99719 15176 ft 373 kts 106°
2026-04-23 10:05 51.99699 -0.95600 14903 ft 370 kts 93°
2026-04-23 10:06 51.99674 -0.91423 14624 ft 369 kts 89°
2026-04-23 10:06 51.99678 -0.87263 14338 ft 368 kts 90°
2026-04-23 10:06 51.99675 -0.83118 14042 ft 366 kts 90°
2026-04-23 10:06 51.99670 -0.78995 13765 ft 366 kts 90°
2026-04-23 10:07 51.99662 -0.74877 13494 ft 364 kts 90°
2026-04-23 10:07 51.99656 -0.70786 13216 ft 362 kts 90°
2026-04-23 10:07 51.99652 -0.66705 12943 ft 362 kts 90°
2026-04-23 10:07 51.99645 -0.62678 12733 ft 348 kts 90°
2026-04-23 10:08 51.99635 -0.58839 12600 ft 333 kts 90°
2026-04-23 10:08 51.99623 -0.55171 12478 ft 318 kts 90°
2026-04-23 10:08 51.99610 -0.51647 12348 ft 306 kts 91°
2026-04-23 10:09 51.99587 -0.44985 12049 ft 286 kts 91°
2026-04-23 10:09 51.99575 -0.41807 11961 ft 285 kts 91°
2026-04-23 10:09 51.99562 -0.38598 11828 ft 285 kts 91°
2026-04-23 10:09 51.99535 -0.35403 11630 ft 283 kts 91°
2026-04-23 10:10 51.99497 -0.32215 11437 ft 283 kts 92°
2026-04-23 10:10 51.99455 -0.29019 11246 ft 282 kts 92°
2026-04-23 10:10 51.99413 -0.25840 11055 ft 281 kts 92°
2026-04-23 10:10 51.99371 -0.22677 10867 ft 280 kts 92°
2026-04-23 10:11 51.99330 -0.19511 10678 ft 282 kts 92°
2026-04-23 10:11 51.99290 -0.16349 10488 ft 280 kts 92°
2026-04-23 10:11 51.99248 -0.13204 10292 ft 278 kts 92°
2026-04-23 10:11 51.99205 -0.10065 10094 ft 278 kts 92°
2026-04-23 10:12 51.99161 -0.06931 9908 ft 278 kts 92°
2026-04-23 10:12 51.99118 -0.03813 9719 ft 276 kts 93°
2026-04-23 10:12 51.99076 -0.00759 9568 ft 266 kts 92°
2026-04-23 10:12 51.99088 0.02178 9440 ft 256 kts 83°
2026-04-23 10:13 51.99795 0.04736 9284 ft 249 kts 49°
2026-04-23 10:13 52.01248 0.06195 9207 ft 252 kts 16°
2026-04-23 10:13 52.03007 0.06302 9059 ft 255 kts 359°
2026-04-23 10:13 52.04778 0.06289 8892 ft 254 kts
2026-04-23 10:14 52.06544 0.06415 8731 ft 254 kts
2026-04-23 10:14 52.08304 0.06578 8567 ft 253 kts
2026-04-23 10:14 52.10059 0.06566 8435 ft 255 kts 349°
2026-04-23 10:14 52.11620 0.05246 8333 ft 258 kts 315°
2026-04-23 10:15 52.12458 0.02699 8241 ft 260 kts 278°
2026-04-23 10:15 52.12289 -0.00165 8140 ft 255 kts 244°
2026-04-23 10:15 52.11232 -0.02374 8039 ft 246 kts 211°
2026-04-23 10:15 52.09679 -0.03342 7950 ft 239 kts 185°
2026-04-23 10:16 52.08032 -0.03727 7862 ft 240 kts 185°
2026-04-23 10:16 52.06381 -0.04110 7772 ft 239 kts 185°
2026-04-23 10:16 52.04759 -0.04487 7682 ft 239 kts 185°
2026-04-23 10:16 52.03092 -0.04869 7606 ft 252 kts 184°
2026-04-23 10:17 52.01347 -0.05242 7502 ft 250 kts 184°
2026-04-23 10:17 51.99660 -0.05607 7351 ft 240 kts 184°
2026-04-23 10:17 51.98020 -0.05958 7077 ft 236 kts 184°
2026-04-23 10:17 51.96396 -0.06306 6764 ft 234 kts 184°
2026-04-23 10:18 51.94784 -0.06656 6428 ft 234 kts 184°
2026-04-23 10:18 51.93179 -0.07010 6099 ft 232 kts 184°
2026-04-23 10:18 51.91585 -0.07347 5750 ft 230 kts 182°
2026-04-23 10:18 51.89996 -0.07583 5429 ft 229 kts 181°
2026-04-23 10:19 51.88415 -0.07796 5113 ft 227 kts 181°
2026-04-23 10:19 51.86842 -0.08015 4799 ft 226 kts 181°
2026-04-23 10:19 51.85278 -0.08242 4476 ft 225 kts 181°
2026-04-23 10:19 51.84245 -0.08385 4241 ft 225 kts 180°
2026-04-23 10:20 51.82686 -0.08610 4002 ft 224 kts 180°
2026-04-23 10:20 51.81176 -0.08300 3690 ft 217 kts 153°
2026-04-23 10:20 51.79579 -0.06427 3265 ft 212 kts 135°
2026-04-23 10:20 51.78859 -0.05358 3075 ft 212 kts 131°
2026-04-23 10:21 51.78027 -0.03466 2924 ft 202 kts 110°
2026-04-23 10:21 51.77883 -0.01273 2795 ft 196 kts 86°
2026-04-23 10:21 51.77906 0.00897 2633 ft 190 kts 91°
2026-04-23 10:21 51.77882 0.02979 2554 ft 183 kts 90°
2026-04-23 10:22 51.77849 0.05006 2520 ft 178 kts 91°
2026-04-23 10:22 51.78011 0.06983 2533 ft 179 kts 72°
2026-04-23 10:22 51.78637 0.08712 2534 ft 179 kts 52°
2026-04-23 10:22 51.79522 0.10044 2538 ft 169 kts 47°
2026-04-23 10:23 51.80363 0.11302 2370 ft 159 kts 47°
2026-04-23 10:23 51.81150 0.12476 2173 ft 149 kts 47°
2026-04-23 10:23 51.81899 0.13596 1988 ft 142 kts 46°
2026-04-23 10:23 51.82591 0.14631 1794 ft 130 kts 45°
2026-04-23 10:24 51.83244 0.15608 1607 ft 125 kts 45°
2026-04-23 10:24 51.83871 0.16546 1459 ft 121 kts 46°
2026-04-23 10:24 51.84484 0.17463 1289 ft 121 kts 44°
2026-04-23 10:24 51.85103 0.18391 1113 ft 121 kts 45°
2026-04-23 10:25 51.85731 0.19322 929 ft 121 kts 44°
2026-04-23 10:25 51.86364 0.20252 767 ft 124 kts 44°
2026-04-23 10:25 51.86984 0.21196 591 ft 124 kts 43°
2026-04-23 10:25 51.87613 0.22141 407 ft 121 kts 44°
2026-04-23 10:26 51.88204 0.23029 336 ft 104 kts 43°
2026-04-23 10:26 51.88513 0.23501 341 ft 22 kts 43°
2026-04-23 10:26 51.88629 0.23672 338 ft 23 kts 41°
2026-04-23 10:26 51.88752 0.23860 347 ft 26 kts 46°
2026-04-23 10:27 51.88850 0.24098 351 ft 25 kts 69°
2026-04-23 10:27 51.88904 0.24366 352 ft 21 kts 75°
2026-04-23 10:27 51.88089 0.22854 331 ft 0 kts 43°